This demonstration page uses our WeatherBlox Daily Observations layout. Learn more.

Left ArrowRight Arrow

Hourly Observations for September 15, 2018

Temp ( °F °C ) Dew Point ( °F °C ) Humidity (%) Winds ( mph kmh ) Pressure ( in mb ) Visibility ( mi km ) Precip ( " mm )
12:54 am 00:54 Clear 70 21.1 67 19.4 90 90 SSE 7 11 30.03 1017 10 16 N/A
1:54 am 01:54 Clear 69 20.6 66 18.9 90 90 S 7 11 30.03 1017 10 16 N/A
2:54 am 02:54 Clear 69 20.6 67 19.4 93 93 SSE 7 11 30.04 1017 10 16 N/A
3:54 am 03:54 Clear 69 20.6 67 19.4 93 93 SSW 3 6 30.05 1018 10 16 N/A
4:54 am 04:54 Clear 69 20.6 66 18.9 90 90 S 5 7 30.06 1018 9 14 N/A
5:54 am 05:54 Clear 66 18.9 65 18.3 96 96 SSE 6 9 30.06 1018 7 11 N/A
6:54 am 06:54 Clear 67 19.4 65 18.3 93 93 SSE 5 7 30.08 1019 8 13 N/A
7:54 am 07:54 Sunny 69 20.6 67 19.4 93 93 N N/A 30.10 1019 8 13 N/A
8:54 am 08:54 Sunny 74 23.3 69 20.6 85 85 S 7 11 30.10 1019 10 16 N/A
9:54 am 09:54 Sunny 80 26.7 70 21.1 71 71 S 8 13 30.10 1019 10 16 N/A
10:54 am 10:54 Sunny 84 28.9 69 20.6 61 61 S 8 13 30.10 1019 10 16 N/A
11:54 am 11:54 Sunny 87 30.6 68 20 53 53 SSW 10 17 30.09 1019 10 16 N/A
12:54 pm 12:54 Mostly Sunny 87 30.6 67 19.4 51 51 S 12 19 30.09 1019 10 16 N/A
1:54 pm 13:54 Mostly Sunny 90 32.2 67 19.4 47 47 S 15 24 30.07 1018 10 16 N/A
2:54 pm 14:54 Sunny 88 31.1 64 17.8 45 45 S 17 28 30.05 1018 10 16 N/A
3:54 pm 15:54 Sunny 91 32.8 66 18.9 44 44 S 13 20 30.03 1017 10 16 N/A
4:54 pm 16:54 Sunny 90 32.2 65 18.3 44 44 S 14 22 30.03 1017 10 16 N/A
5:54 pm 17:54 Sunny 89 31.7 66 18.9 47 47 S 12 19 30.01 1016 10 16 N/A
6:54 pm 18:54 Sunny 85 29.4 66 18.9 53 53 SSE 9 15 30.01 1016 10 16 N/A
7:54 pm 19:54 Clear 81 27.2 66 18.9 61 61 S 6 9 30.01 1016 10 16 N/A
8:54 pm 20:54 Clear 77 25 66 18.9 69 69 SSE 6 9 30.02 1017 10 16 N/A
9:54 pm 21:54 Clear 75 23.9 66 18.9 74 74 SSE 7 11 30.03 1017 10 16 N/A
10:54 pm 22:54 Clear 73 22.8 66 18.9 79 79 S 6 9 30.03 1017 10 16 N/A
11:54 pm 23:54 Clear 71 21.7 66 18.9 84 84 S 6 9 30.03 1017 10 16 N/A

Powered by AerisWeather